Weather reports worldwide

Advertisment
Quimper, France (7201): temperature & dewpoint: 01.08.2020 03:00:00 - 07.08.2020 03:00:00 (CEST)Quimper, France (7201): temperature 5cm: 01.08.2020 03:00:00 - 07.08.2020 03:00:00 (CEST)Quimper, France (7201): temperature -20cm: 01.08.2020 03:00:00 - 07.08.2020 03:00:00 (CEST)Quimper, France (7201): wind speed & gusts: 01.08.2020 03:00:00 - 07.08.2020 03:00:00 (CEST)Quimper, France (7201): wind direction: 01.08.2020 03:00:00 - 07.08.2020 03:00:00 (CEST)Quimper, France (7201): reduced air pressure: 01.08.2020 03:00:00 - 07.08.2020 03:00:00 (CEST)Quimper, France (7201): visibility: 01.08.2020 03:00:00 - 07.08.2020 03:00:00 (CEST)Quimper, France (7201): sunshine duration: 01.08.2020 03:00:00 - 07.08.2020 03:00:00 (CEST)Quimper, France (7201): precipitation: 01.08.2020 03:00:00 - 07.08.2020 03:00:00 (CEST)
Date & Time tt [°C] td [°C] tt 5cm [°C] tt -20cm [°C] ff [km/h] ff [kn] fx [km/h] fx [kn] dd ppp [hPa] vv [km] sd [min] rr [mm]
07.08.2020 03:00:00 16,5 14,3 14,6 19,3 9 5 14 8 NNE 1016,5 60 0 0,0
07.08.2020 02:00:00 17,2 15,0 15,8 19,4 10 5 18 10 NNE 1016,6 60 0 0,0
07.08.2020 01:00:00 17,9 15,5 15,9 19,4 12 7 16 9 NNE 1016,8 60 0 0,0
07.08.2020 00:00:00 18,2 15,4 15,6 19,4 11 6 18 10 NNE 1017,0 60 0 0,0
06.08.2020 23:00:00 18,6 14,7 16,3 19,4 8 5 16 8 N 1016,9 60 0 0,0
06.08.2020 22:00:00 19,7 14,5 17,9 19,3 10 6 14 8 N 1016,7 60 19 0,0
06.08.2020 21:00:00 25,3 13,2 25,6 19,2 4 2 8 4 W 1016,4 60 60 0,0
06.08.2020 20:00:00 26,1 12,5 30,7 19,0 4 2 8 5 S 1016,2 59 60 0,0
06.08.2020 19:00:00 26,5 13,3 32,2 18,9 5 3 15 8 S 1016,2 35 60 0,0
06.08.2020 18:00:00 27,0 14,1 32,8 18,7 9 5 15 8 SSW 1016,6 48 60 0,0
06.08.2020 17:00:00 26,6 14,0 31,8 18,6 7 4 19 10 S 1016,7 36 60 0,0
06.08.2020 16:00:00 25,7 15,1 31,0 18,4 13 7 22 12 SSE 1017,0 34 60 0,0
06.08.2020 15:00:00 24,6 15,5 29,9 18,3 11 6 21 11 S 1017,2 32 60 0,0
06.08.2020 14:00:00 23,7 17,2 26,8 18,3 12 7 24 13 SSW 1017,2 33 57 0,0
06.08.2020 13:00:00 23,1 18,0 25,1 18,2 13 7 24 13 S 1017,2 43 51 0,0
06.08.2020 12:00:00 22,2 17,8 21,1 18,2 14 7 24 13 SSE 1017,3 49 41 0,0
06.08.2020 11:00:00 20,3 17,9 20,7 18,2 14 8 22 12 SSE 1017,2 52 16 0,0
06.08.2020 10:00:00 18,7 18,5 19,3 18,3 8 4 15 8 S 1017,1 39 5 0,2
06.08.2020 09:00:00 18,7 18,7 18,3 18,3 8 4 14 7 S 1016,8 7 0 0,0
06.08.2020 08:00:00 18,2 18,2 17,8 18,3 6 3 14 8 S 1016,3 0,3 0 0,0
06.08.2020 07:00:00 17,9 17,9 17,8 18,3 7 4 13 7 S 1016,2 0,2 0 0,0
06.08.2020 06:00:00 18,0 17,8 17,9 18,3 5 3 14 8 S 1016,1 0,2 0 0,0
06.08.2020 05:00:00 18,1 17,9 17,9 18,3 6 4 13 7 S 1016,1 0,7 0 0,0
06.08.2020 04:00:00 18,1 17,9 17,9 18,3 5 3 13 7 S 1016,3 0,2 0 0,0
06.08.2020 03:00:00 18,1 17,9 18,0 18,4 7 4 11 6 S 1016,3 0,2 0 0,0
06.08.2020 02:00:00 18,3 18,0 18,0 18,3 6 3 11 6 S 1016,3 0,3 0 0,0
06.08.2020 01:00:00 18,3 18,0 18,0 18,3 6 3 12 6 S 1016,4 0,6 0 0,0
06.08.2020 00:00:00 18,5 17,8 18,2 18,3 7 4 12 6 S 1016,3 20 0 0,0
05.08.2020 23:00:00 18,9 17,9 18,4 18,3 7 4 13 7 S 1016,1 58 0 0,0
05.08.2020 22:00:00 19,1 17,6 18,4 18,3 8 4 18 10 SSW 1015,8 9 0 0,0
05.08.2020 21:00:00 19,7 17,1 19,6 18,2 10 6 24 13 SW 1015,2 60 0 0,0
05.08.2020 20:00:00 20,7 16,9 20,7 18,1 18 10 32 18 SSW 1015,1 46 7 0,0
05.08.2020 19:00:00 21,4 17,2 22,4 18,0 18 10 34 18 SSW 1015,2 60 23 0,0
05.08.2020 18:00:00 22,5 16,8 23,8 17,9 23 12 37 20 SW 1015,1 36 42 0,0
05.08.2020 17:00:00 22,7 16,9 23,4 17,8 22 12 39 21 SW 1015,2 38 14 0,0
05.08.2020 16:00:00 21,8 16,5 23,4 17,8 24 13 42 23 SSW 1015,3 33 15 0,0
05.08.2020 15:00:00 21,8 16,7 24,2 17,7 21 12 41 22 SSW 1015,3 32 19 0,0
05.08.2020 14:00:00 22,2 17,1 22,8 17,7 19 10 38 20 SSW 1015,2 36 21 0,0
05.08.2020 13:00:00 22,0 16,9 22,0 17,6 21 11 38 21 SW 1015,1 33 14 0,0
05.08.2020 12:00:00 20,1 16,7 21,2 17,7 21 11 35 19 SSW 1015,0 22 4 0,0
05.08.2020 11:00:00 20,2 17,0 21,7 17,7 16 9 29 15 SSW 1014,8 41 30 0,0
05.08.2020 10:00:00 19,7 16,2 18,9 17,7 15 8 25 14 SSW 1014,7 60 13 0,0
05.08.2020 09:00:00 17,9 15,2 16,7 17,7 8 4 16 8 SSW 1015,0 57 11 0,0
05.08.2020 08:00:00 16,4 15,1 15,4 17,8 6 3 10 5 S 1015,0 60 0 0,0
05.08.2020 07:00:00 15,8 14,5 15,2 17,8 4 2 9 5 S 1015,2 59 0 0,0
05.08.2020 06:00:00 15,5 14,5 14,6 17,9 5 3 9 5 S 1015,1 12 0 0,0
05.08.2020 05:00:00 15,4 14,6 14,4 18,0 5 3 13 7 SSW 1015,4 53 0 0,0
05.08.2020 04:00:00 14,8 14,5 13,0 18,1 6 3 9 5 SSW 1015,9 29 0 0,0
05.08.2020 03:00:00 14,2 13,9 12,8 18,2 6 3 8 5 S 1016,3 27 0 0,0
05.08.2020 02:00:00 13,8 13,3 8,5 18,2 2 1 7 4 SSE 1016,9 36 0 0,0
05.08.2020 01:00:00 13,6 13,0 8,3 18,3 4 2 7 4 SSE 1017,2 30 0 0,0
05.08.2020 00:00:00 13,7 12,9 8,7 18,3 5 3 8 5 S 1017,5 43 0 0,0
04.08.2020 23:00:00 14,2 12,8 9,7 18,2 4 2 6 4 S 1017,8 11 0 0,0
04.08.2020 22:00:00 16,0 13,3 14,0 18,1 4 2 11 6 SW 1017,8 18 22 0,0
04.08.2020 21:00:00 18,2 13,3 18,3 18,1 10 5 22 12 WSW 1017,9 47 60 0,0
04.08.2020 20:00:00 19,7 12,9 23,1 17,9 12 7 20 11 SW 1018,0 50 60 0,0
04.08.2020 19:00:00 20,1 12,3 24,1 17,8 13 7 31 17 SSW 1018,0 40 60 0,0
04.08.2020 18:00:00 20,8 12,0 25,1 17,6 17 9 29 16 WSW 1018,4 20 60 0,0
04.08.2020 17:00:00 21,4 10,2 26,3 17,5 14 7 27 15 SW 1018,6 32 60 0,0
04.08.2020 16:00:00 21,5 9,7 26,8 17,4 11 6 28 15 W 1019,0 34 60 0,0
04.08.2020 15:00:00 21,2 10,9 26,4 17,3 14 7 23 13 WSW 1019,3 20 60 0,0
04.08.2020 14:00:00 20,5 13,0 23,5 17,3 11 6 24 13 SW 1019,5 36 46 0,0
04.08.2020 13:00:00 19,4 12,4 22,5 17,3 11 6 21 11 SW 1019,8 29 42 0,0
04.08.2020 12:00:00 19,0 10,8 19,6 17,4 6 3 17 9 SSW 1020,0 60 45 0,0
04.08.2020 11:00:00 18,2 11,7 18,6 17,5 7 4 13 7 SSE 1020,0 44 50 0,0
04.08.2020 10:00:00 17,3 12,4 17,8 17,7 3 2 7 4 SE 1020,2 15 60 0,0
04.08.2020 09:00:00 14,4 12,9 12,4 17,8 3 2 4 2 NE 1020,4 35 60 0,0
04.08.2020 08:00:00 10,7 10,4 4,4 18,0 4 2 5 3 NNE 1020,1 19 38 0,0
04.08.2020 07:00:00 9,3 9,0 3,4 18,1 3 2 4 2 NNE 1020,2 15 0 0,0
04.08.2020 06:00:00 9,3 8,8 3,1 18,2 2 1 5 3 ENE 1020,2 6 0 0,0
04.08.2020 05:00:00 9,6 9,1 3,7 18,4 4 2 6 4 N 1020,3 9 0 0,0
04.08.2020 04:00:00 10,5 9,7 4,9 18,5 4 2 9 5 N 1020,3 42 0 0,2
04.08.2020 03:00:00 10,8 9,7 6,9 18,6 4 2 11 6 N 1020,5 13 0 0,0
04.08.2020 02:00:00 11,6 10,7 6,1 18,7 6 4 13 7 N 1020,7 56 0 0,0
04.08.2020 01:00:00 11,9 10,1 7,3 18,8 10 5 16 9 N 1020,7 18 0 0,0
04.08.2020 00:00:00 12,3 10,2 9,4 18,8 8 4 13 7 N 1020,8 60 0 0,0
03.08.2020 23:00:00 13,6 10,4 10,3 18,8 10 5 15 8 N 1020,4 60 0 0,0
03.08.2020 22:00:00 15,1 10,3 13,3 18,7 9 5 26 14 N 1019,7 60 23 0,0
03.08.2020 21:00:00 17,8 10,7 19,1 18,6 17 9 35 19 NNW 1019,2 30 60 0,0
03.08.2020 20:00:00 19,3 11,1 21,8 18,5 24 13 37 20 NNW 1018,8 17 60 0,0
03.08.2020 19:00:00 20,6 11,5 23,8 18,4 26 14 38 20 NNW 1018,8 16 58 0,0
03.08.2020 18:00:00 21,3 11,0 24,8 18,3 22 12 33 18 NW 1018,5 17 60 0,0
03.08.2020 17:00:00 21,1 10,3 25,0 18,2 14 7 27 15 NNW 1018,5 36 60 0,0
03.08.2020 16:00:00 21,8 10,9 21,7 18,1 12 6 24 13 N 1018,5 52 53 0,0
03.08.2020 15:00:00 22,2 10,7 22,7 18,0 13 7 23 13 N 1019,0 60 46 0,0
03.08.2020 14:00:00 20,5 11,4 21,2 17,9 9 5 23 13 NW 1019,4 60 34 0,0
03.08.2020 13:00:00 20,6 11,8 21,4 18,0 3 2 21 11 E 1019,5 20 32 0,0
03.08.2020 12:00:00 20,1 12,6 20,1 17,9 9 5 17 9 NNE 1019,6 49 34 0,0
03.08.2020 11:00:00 19,1 12,1 22,6 18,0 8 4 14 8 NW 1019,5 53 53 0,0
03.08.2020 10:00:00 18,3 13,8 18,3 18,0 9 5 16 9 NNW 1019,5 38 57 0,0
03.08.2020 09:00:00 16,4 13,7 14,8 18,1 5 3 11 6 N 1019,2 44 43 0,0
03.08.2020 08:00:00 14,5 13,9 13,2 18,2 3 2 6 4 NW 1019,0 48 16 0,0
03.08.2020 07:00:00 13,9 13,4 12,8 18,2 5 3 10 5 NW 1018,8 41 0 0,0
03.08.2020 06:00:00 13,9 13,4 12,8 18,3 4 2 9 5 W 1018,7 39 0 0,0
03.08.2020 05:00:00 14,2 13,6 13,6 18,3 7 4 10 5 WNW 1018,9 37 0 0,0
03.08.2020 04:00:00 14,2 13,6 13,5 18,4 6 4 10 5 WNW 1019,1 56 0 0,0
03.08.2020 03:00:00 14,2 13,6 13,4 18,5 7 4 12 7 W 1019,5 46 0 0,6
03.08.2020 02:00:00 14,1 13,6 13,4 18,5 8 5 12 6 W 1019,7 49 0 0,0
03.08.2020 01:00:00 14,2 13,9 13,0 18,6 5 3 7 4 W 1019,8 38 0 0,0
03.08.2020 00:00:00 14,3 14,0 11,6 18,6 5 3 7 4 W 1020,1 18 0 0,0
02.08.2020 23:00:00 14,6 13,8 12,9 18,6 5 3 8 4 WSW 1020,1 31 0 0,0
02.08.2020 22:00:00 15,3 14,2 14,0 18,5 6 3 12 6 W 1020,0 45 24 0,0
02.08.2020 21:00:00 16,0 14,2 15,1 18,5 10 5 28 15 W 1020,0 14 9 0,0
02.08.2020 20:00:00 17,7 13,4 18,2 18,4 19 10 30 16 W 1020,2 46 23 0,0
02.08.2020 19:00:00 19,1 14,8 19,5 18,3 16 8 34 18 WSW 1020,2 41 18 0,0
02.08.2020 18:00:00 19,6 13,5 21,3 18,3 24 13 36 19 W 1020,4 41 25 0,0
02.08.2020 17:00:00 20,9 13,3 20,6 18,2 21 11 36 19 W 1020,7 43 22 0,0
02.08.2020 16:00:00 19,4 14,0 20,0 18,1 22 12 35 19 W 1020,9 47 19 0,0
02.08.2020 15:00:00 19,1 13,3 20,9 18,1 23 13 35 19 W 1021,1 51 26 0,0
02.08.2020 14:00:00 19,3 12,8 21,3 18,0 21 12 36 19 W 1021,4 60 9 0,0
02.08.2020 13:00:00 19,8 12,5 19,9 18,1 20 11 31 17 W 1021,3 60 22 0,0
02.08.2020 12:00:00 18,1 13,0 19,2 18,1 16 9 26 14 W 1021,9 34 14 0,0
02.08.2020 11:00:00 18,2 12,4 18,1 18,2 14 7 23 13 WSW 1021,9 38 30 0,0
02.08.2020 10:00:00 18,1 13,6 18,7 18,3 11 6 20 11 W 1022,0 34 55 0,0
02.08.2020 09:00:00 16,0 14,2 13,8 18,3 6 3 9 5 WSW 1021,8 30 15 0,0
02.08.2020 08:00:00 13,8 13,5 12,2 18,4 5 3 8 4 W 1021,6 44 0 0,2
02.08.2020 07:00:00 12,6 12,1 9,1 18,5 6 4 9 5 W 1021,6 33 0 0,0
02.08.2020 06:00:00 13,3 12,7 10,6 18,6 3 2 7 4 WSW 1021,3 46 0 0,0
02.08.2020 05:00:00 13,2 12,6 11,7 18,7 2 1 12 7 N 1021,3 46 0 0,0
02.08.2020 04:00:00 13,2 12,6 11,7 18,8 7 4 10 5 WNW 1021,2 58 0 0,0
02.08.2020 03:00:00 13,0 12,5 10,4 18,9 6 3 9 5 WNW 1021,7 34 0 0,0
02.08.2020 02:00:00 12,9 12,3 11,0 19,0 4 2 13 7 WNW 1021,8 49 0 0,0
02.08.2020 01:00:00 12,9 12,1 11,8 19,0 8 4 14 7 W 1022,3 20 0 0,0
02.08.2020 00:00:00 13,6 12,5 12,4 19,0 9 5 14 8 WNW 1022,2 41 0 0,0
01.08.2020 23:00:00 15,1 13,3 14,0 19,0 9 5 18 10 NW 1022,2 51 0 0,0
01.08.2020 22:00:00 16,4 13,5 16,0 19,0 13 7 23 13 NW 1021,8 59 18 0,0
01.08.2020 21:00:00 17,2 13,1 17,2 18,9 16 9 27 14 NW 1021,2 56 0 0,0
01.08.2020 20:00:00 18,3 13,4 18,7 18,8 18 10 31 17 WNW 1020,8 55 6 0,0
01.08.2020 19:00:00 19,9 13,1 21,8 18,7 20 11 34 18 NW 1021,0 36 49 0,0
01.08.2020 18:00:00 20,7 13,4 23,1 18,6 21 11 34 18 NW 1020,8 27 40 0,0
01.08.2020 17:00:00 21,4 14,1 24,1 18,4 21 11 36 20 WNW 1020,6 22 58 0,0
01.08.2020 16:00:00 20,6 14,0 22,7 18,4 22 12 37 20 NW 1020,6 24 32 0,0
01.08.2020 15:00:00 22,3 14,4 24,1 18,3 27 14 39 21 NW 1020,3 24 56 0,0
01.08.2020 14:00:00 21,2 14,8 22,1 18,3 26 14 35 19 NW 1020,1 30 25 0,0
01.08.2020 13:00:00 20,4 15,0 20,4 18,3 22 12 33 18 NW 1020,0 34 15 0,0
01.08.2020 12:00:00 21,0 16,0 20,7 18,3 19 11 30 16 W 1019,6 20 43 0,0
01.08.2020 11:00:00 19,2 15,5 18,4 18,3 19 10 29 15 W 1019,6 20 41 0,0
01.08.2020 10:00:00 18,4 16,0 18,0 18,3 16 9 26 14 W 1019,2 17 35 0,0
01.08.2020 09:00:00 16,9 16,4 16,7 18,4 13 7 19 10 W 1018,9 13 11 0,0
01.08.2020 08:00:00 16,9 16,7 15,4 18,4 8 4 15 8 WSW 1018,5 9 5 0,0
01.08.2020 07:00:00 16,2 16,0 15,3 18,5 7 4 17 9 W 1018,5 12 0 0,0
01.08.2020 06:00:00 16,6 16,4 16,0 18,6 11 6 18 10 WSW 1018,3 10 0 0,0
01.08.2020 05:00:00 16,5 16,3 15,9 18,6 7 4 12 6 SW 1018,5 3,4 0 0,0
01.08.2020 04:00:00 16,0 15,8 14,8 18,7 5 3 8 4 SW 1018,3 1,7 0 0,0
01.08.2020 03:00:00 16,0 15,8 14,1 18,7 4 2 10 6 SW 1018,3 0,2 0 0,2

tt = temperature
td = dewpoint
tt 5cm = temperature 5cm
tt -20cm = temperature -20cm
ff = wind speed
fx = gusts
dd = wind direction
ppp = reduced air pressure
vv = visibility
sd = sunshine duration
rr = precipitation

Next stations